Weather History for KHZY - June, 2013

Change the Weather History Date:

Tuesday, June 18, 2013

  Actual Average (KYNG) Record (KYNG)
Temperature  
Mean Temperature 62 °F 67 °F  
Max Temperature 70 °F 78 °F 95 °F (1994)
Min Temperature 52 °F 56 °F 36 °F (1950)
Degree Days  
Heating Degree Days 3 2  
Month to date heating degree days 55  
Since 1 June heating degree days 55  
Since 1 July heating degree days 6335  
Cooling Degree Days 0 4  
Month to date cooling degree days 51  
Year to date cooling degree days 90  
Since 1 June cooling degree days 51  
Growing Degree Days 12 (Base 50)    
Moisture  
Dew Point 54 °F    
Average Humidity 75    
Maximum Humidity 90    
Minimum Humidity 50    
Precipitation  
Precipitation 0.50 in 0.13 in 1.33 in (1984)
Month to date precipitation 2.32  
Year to date precipitation 17.11  
Snow  
Snow 0.00 in 0.00 in - ()
Month to date snowfall 0.0  
Since 1 June snowfall 0.0  
Since 1 July snowfall 62.7  
Snow Depth -    
Sea Level Pressure  
Sea Level Pressure 29.95 in    
Wind  
Wind Speed 6 mph (NE)    
Max Wind Speed 13 mph    
Max Gust Speed 25 mph    
Visibility 9 miles    
Events Rain    
T = Trace of Precipitation, MM = Missing Value Source: NWS Daily Summary

Daily Weather History Graph

Daily Weather History Graph

Search for Another Location

Airport or City:

Trip Planner

Search our weather history database for the weather conditions in past years. The results will help you decide how hot, cold, wet, or windy it might be!

Date:

Astronomy

Jun. 18, 2013 Rise Set
Actual Time 5:47 AM EDT 9:00 PM EDT
Civil Twilight 5:13 AM EDT 9:34 PM EDT
Nautical Twilight 4:29 AM EDT 10:18 PM EDT
Astronomical Twilight 3:36 AM EDT 11:12 PM EDT
Moon 3:40 PM EDT (6/18) 1:59 AM EDT (6/18)
Length of Visible Light 16h 21m
Length of Day
15h 12m
Waxing Gibbous, 70% of the Moon is Illuminated
Jun 18
Waxing Gibbous
Jun 23
Full
Jun 30
Last Quarter
Jul 8
New
Jul 15
First Quarter

Hourly Weather History & Observations

Time (EDT) Temp. Dew Point Humidity Pressure Visibility Wind Dir Wind Speed Gust Speed Precip Events Conditions
12:53 AM 61.0 °F 57.0 °F 87% 29.93 in 2.5 mi East 8.1 mph - 0.21 in Rain Heavy Rain
1:01 AM 60.8 °F 57.2 °F 88% 29.95 in 4.0 mi NNE 6.9 mph - 0.02 in Rain Rain
1:53 AM 61.0 °F 57.0 °F 87% 29.89 in 8.0 mi ESE 11.5 mph - 0.09 in Rain Light Rain
2:53 AM 61.0 °F 57.0 °F 87% 29.90 in 3.0 mi ESE 4.6 mph - 0.17 in Rain Heavy Rain
3:53 AM 61.0 °F 57.0 °F 87% 29.88 in 10.0 mi Calm Calm - 0.03 in   Scattered Clouds
4:53 AM 60.1 °F 57.0 °F 90% 29.89 in 10.0 mi Calm Calm - N/A   Clear
5:23 AM 60.8 °F 57.2 °F 88% 29.94 in 10.0 mi North 8.1 mph - N/A   Mostly Cloudy
5:53 AM 61.0 °F 55.9 °F 83% 29.91 in 10.0 mi North 3.5 mph - N/A   Partly Cloudy
6:53 AM 61.0 °F 57.0 °F 87% 29.92 in 10.0 mi Calm Calm - N/A   Scattered Clouds
7:53 AM 62.1 °F 57.9 °F 86% 29.93 in 10.0 mi North 3.5 mph - N/A   Partly Cloudy
8:36 AM 64.4 °F 57.2 °F 77% 29.95 in 10.0 mi Variable 4.6 mph - N/A   Partly Cloudy
8:53 AM 63.0 °F 57.9 °F 84% 29.94 in 10.0 mi ENE 4.6 mph - N/A   Mostly Cloudy
9:53 AM 63.0 °F 57.0 °F 81% 29.95 in 10.0 mi NNE 5.8 mph - N/A   Overcast
10:07 AM 62.6 °F 57.2 °F 82% 29.96 in 10.0 mi NNE 5.8 mph - N/A   Overcast
10:53 AM 66.0 °F 57.9 °F 75% 29.96 in 10.0 mi NE 6.9 mph - N/A   Scattered Clouds
11:53 AM 69.1 °F 59.0 °F 70% 29.96 in 10.0 mi North 5.8 mph - N/A   Partly Cloudy
12:53 PM 69.1 °F 57.9 °F 68% 29.96 in 10.0 mi NNE 10.4 mph - N/A   Mostly Cloudy
1:53 PM 68.0 °F 57.0 °F 68% 29.96 in 10.0 mi North 10.4 mph 16.1 mph N/A   Clear
2:53 PM 68.0 °F 55.0 °F 63% 29.96 in 10.0 mi NNE 10.4 mph 16.1 mph N/A   Clear
3:53 PM 66.9 °F 53.1 °F 61% 29.96 in 10.0 mi NNE 12.7 mph 21.9 mph N/A   Clear
4:53 PM 64.9 °F 52.0 °F 63% 29.96 in 10.0 mi NNE 10.4 mph 25.3 mph N/A   Clear
5:53 PM 66.0 °F 50.0 °F 56% 29.97 in 10.0 mi NNE 10.4 mph 20.7 mph N/A   Clear
6:53 PM 64.9 °F 48.0 °F 54% 29.97 in 10.0 mi NE 10.4 mph 18.4 mph N/A   Clear
7:53 PM 64.0 °F 45.0 °F 50% 29.99 in 10.0 mi ENE 9.2 mph - N/A   Clear
8:53 PM 61.0 °F 44.1 °F 54% 30.00 in 10.0 mi ENE 3.5 mph - N/A   Clear
9:53 PM 59.0 °F 45.0 °F 60% 30.01 in 10.0 mi Calm Calm - N/A   Clear
10:53 PM 55.0 °F 46.0 °F 72% 30.03 in 10.0 mi Calm Calm - N/A   Clear
11:53 PM 52.0 °F 46.9 °F 83% 30.04 in 10.0 mi Calm Calm - N/A   Clear